Location: Newark
(46.9000°N, 28.3500°E)
Time: 05:29:27
(UTC+00:00)

Vanguard 1 Rocket - Pass Details

Date: 28 August 2019
Orbit: 652 x 4224 km, 34.3° (Epoch: 13 September)

Event Time Altitude Azimuth Distance (km) Brightness Sun altitude
Rises 23:28:57 0° 234° (SW) 3,189 - -30.7°
Reaches altitude 10° 23:32:12 10° 212° (SSW) 2,091 - -30.5°
Maximum altitude 23:35:03 16° 172° (S) 1,656 - -30.3°
Drops below altitude 10° 23:37:55 10° 132° (SE) 2,106 - -30.1°
Exits shadow 23:40:23 - 114° (ESE) 2,910 10.0 -29.9°
Sets 23:41:13 0° 110° (ESE) 3,222 10.3 -29.8°
